GW5677 Weather Reports


time (UTC)temp
F
wind
direction
speed
knots
gust
knots
rain 1hr
in
rain 24hr
in
rain mn
in
humidity
%
barometer
mb
20260510020104 57 354 3.5 7.0 0.00 0.00 0.00 65 1008.6
20260510015600 57 271 3.5 5.2 0.00 0.00 0.00 64 1008.5
20260510015056 57 266 1.7 2.6 0.00 0.00 0.00 65 1008.3
20260510014552 57 248 4.3 7.0 0.00 0.00 0.00 64 1008.2
20260510014050 57 198 1.7 2.6 0.00 0.00 0.00 67 1008.3
20260510013544 57 226 2.6 2.6 0.00 0.00 0.00 67 1008.3
20260510013040 57 197 0.9 0.9 0.00 0.00 0.00 68 1008.2
20260510012534 58 341 2.6 3.5 0.00 0.00 0.00 67 1007.9
20260510012031 57 257 3.5 5.2 0.00 0.00 0.00 66 1007.9
20260510011530 57 236 1.7 1.7 0.00 0.00 0.00 68 1007.8
20260510011026 57 218 1.7 2.6 0.00 0.00 0.00 68 1007.7
20260510010523 57 349 0.9 1.7 0.00 0.00 0.00 68 1007.6
20260510010020 57 210 2.6 3.5 0.00 0.00 0.00 69 1007.7
20260510005516 58 247 4.3 6.1 0.00 0.00 0.00 67 1007.7
20260510005014 58 264 2.6 3.5 0.00 0.00 0.00 67 1007.4
20260510004511 58 281 1.7 3.5 0.00 0.00 0.00 66 1007.2
20260510004009 58 67 1.7 1.7 0.00 0.00 0.00 67 1007.2
20260510003505 58 55 0.9 0.9 0.00 0.00 0.00 66 1007.4
20260510003001 58 89 1.7 1.7 0.00 0.00 0.00 66 1007.1
20260510002457 58 31 3.5 5.2 0.00 0.00 0.00 66 1007.2
20260510001953 58 314 2.6 3.5 0.00 0.00 0.00 66 1007.1
20260510001451 59 78 0.9 0.9 0.00 0.00 0.00 67 1007.1
20260510000949 59 203 3.5 3.5 0.00 0.00 0.00 67 1006.9
20260510000444 59 240 2.6 2.6 0.00 0.00 0.00 66 1007.1
20260509235941 59 270 1.7 1.7 0.00 0.00 0.00 67 1006.9
20260509235437 59 235 2.6 3.5 0.00 0.00 0.00 68 1006.7
20260509234934 58 271 1.7 2.6 0.00 0.00 0.00 72 1007.2
20260509234431 59 259 0.0 0.9 0.00 0.00 0.00 74 1007.2
20260509233929 59 317 1.7 2.6 0.00 0.00 0.00 70 1007.1
20260509233426 59 120 1.7 1.7 0.00 0.00 0.00 73 1006.9
20260509232922 59 237 1.7 2.6 0.00 0.00 0.00 71 1007.1
20260509232420 61 346 1.7 2.6 0.00 0.00 0.00 69 1007.1
20260509231915 61 285 0.9 1.7 0.00 0.00 0.00 68 1007.1
20260509231412 62 271 1.7 2.6 0.00 0.00 0.00 67 1006.9
20260509230911 61 78 0.9 1.7 0.00 0.00 0.00 67 1007.1
20260509230407 62 68 1.7 2.6 0.00 0.00 0.00 65 1007.1
20260509225903 62 45 0.9 1.7 0.00 0.00 0.00 65 1006.8
20260509225400 63 55 0.0 1.7 0.00 0.00 0.00 62 1006.7
20260509224855 62 274 1.7 1.7 0.00 0.00 0.00 65 1006.8
20260509224351 62 273 0.0 0.9 0.00 0.00 0.00 64 1006.8
20260509223849 60 238 2.6 6.1 0.00 0.00 0.00 65 1006.7
20260509223345 60 206 1.7 3.5 0.00 0.00 0.00 65 1006.7
20260509222842 62 89 1.7 2.6 0.00 0.00 0.00 60 1007.1
20260509222337 64 267 2.6 2.6 0.00 0.00 0.00 56 1007.1
20260509221833 64 330 1.7 2.6 0.00 0.00 0.00 56 1006.7
20260509221331 63 75 0.9 0.9 0.00 0.00 0.00 58 1006.9
20260509220830 62 91 0.9 0.9 0.00 0.00 0.00 58 1006.9
20260509220327 63 125 0.9 1.7 0.00 0.00 0.00 59 1006.8
20260509215822 63 158 3.5 6.1 0.00 0.00 0.00 56 1006.6
20260509215320 62 7 0.9 0.9 0.00 0.00 0.00 61 1006.6
20260509214816 62 73 1.7 1.7 0.00 0.00 0.00 60 1006.7
20260509214313 62 20 0.0 0.0 0.00 0.00 0.00 57 1006.9
20260509213810 62 34 0.0 0.9 0.00 0.00 0.00 59 1006.7
20260509213306 62 351 1.7 2.6 0.00 0.00 0.00 61 1006.8
20260509212804 62 285 0.9 2.6 0.00 0.00 0.00 64 1006.6
20260509212301 63 261 0.9 0.9 0.00 0.00 0.00 63 1006.8
20260509211756 63 325 0.9 0.9 0.00 0.00 0.00 61 1006.6
20260509211253 62 1 0.9 2.6 0.00 0.00 0.00 63 1006.6
20260509210749 62 319 2.6 3.5 0.00 0.00 0.00 62 1006.5
20260509210248 62 223 3.5 3.5 0.00 0.00 0.00 65 1006.6
20260509205746 63 13 1.7 3.5 0.00 0.00 0.00 63 1006.5
20260509205241 64 335 0.9 2.6 0.00 0.00 0.00 61 1006.5
20260509204737 64 89 1.7 1.7 0.00 0.00 0.00 63 1006.3
20260509204234 65 111 3.5 5.2 0.00 0.00 0.00 60 1006.3
20260509203730 61 61 0.9 1.7 0.00 0.00 0.00 66 1006.3
20260509203229 64 144 3.5 5.2 0.00 0.00 0.00 64 1006.2
20260509202724 63 125 3.5 5.2 0.00 0.00 0.00 63 1006.2
20260509202220 63 177 0.9 1.7 0.00 0.00 0.00 66 1006.2
20260509201714 62 237 0.9 0.9 0.00 0.00 0.00 67 1006.1
20260509201212 62 130 0.9 0.9 0.00 0.00 0.00 65 1006.4
20260509200709 62 291 0.9 1.7 0.00 0.00 0.00 66 1006.5
20260509200209 63 240 1.7 2.6 0.00 0.00 0.00 65 1006.3
20260509195706 62 90 2.6 5.2 0.00 0.00 0.00 66 1006.4
20260509195201 62 86 3.5 5.2 0.00 0.00 0.00 68 1006.3
20260509194700 60 319 0.9 0.9 0.00 0.00 0.00 70 1006.5
20260509194157 61 187 1.7 2.6 0.00 0.00 0.00 68 1006.5
20260509193654 61 139 1.7 3.5 0.00 0.00 0.00 68 1006.6
20260509193149 62 297 0.9 1.7 0.00 0.00 0.00 67 1006.7
20260509192646 60 86 1.7 2.6 0.00 0.00 0.00 70 1006.8
20260509192141 60 82 1.7 1.7 0.00 0.00 0.00 69 1006.7
20260509191635 59 186 1.7 2.6 0.00 0.00 0.00 69 1006.8
20260509191132 60 340 0.9 1.7 0.00 0.00 0.00 72 1006.7
20260509190629 60 91 0.9 1.7 0.00 0.00 0.00 71 1007.1
20260509190126 62 170 2.6 3.5 0.00 0.00 0.00 70 1006.9
20260509185623 63 79 0.9 1.7 0.00 0.00 0.00 66 1006.9
20260509185119 61 170 1.7 2.6 0.00 0.00 0.00 72 1006.9
20260509184618 61 173 3.5 5.2 0.00 0.00 0.00 71 1007.1
20260509184114 62 238 2.6 2.6 0.00 0.00 0.00 63 1007.1
20260509183609 60 115 6.1 8.7 0.00 0.00 0.00 70 1007.1
20260509183106 60 126 5.2 6.1 0.00 0.00 0.00 69 1006.9
20260509182602 60 358 2.6 3.5 0.00 0.00 0.00 70 1006.9
20260509182059 59 110 0.9 1.7 0.00 0.00 0.00 72 1007.2
20260509181557 61 285 0.9 0.9 0.00 0.00 0.00 68 1007.3
20260509181054 60 270 0.9 0.9 0.00 0.00 0.00 72 1007.1
20260509180549 58 54 1.7 2.6 0.00 0.00 0.00 75 1007.4
20260509180048 58 125 0.9 2.6 0.00 0.00 0.00 76 1007.6
20260509175542 58 121 2.6 3.5 0.00 0.00 0.00 75 1007.7
20260509175040 58 52 2.6 2.6 0.00 0.00 0.00 77 1007.6
20260509174536 58 166 0.9 1.7 0.00 0.00 0.00 76 1007.5
20260509174031 58 26 0.0 0.9 0.00 0.00 0.00 76 1007.7
20260509173526 57 138 1.7 2.6 0.00 0.00 0.00 78 1007.9
20260509173023 57 11 0.9 0.9 0.00 0.00 0.00 78 1007.9
20260509172520 57 15 0.0 0.9 0.00 0.00 0.00 78 1007.8
20260509172015 57 54 0.0 0.9 0.00 0.00 0.00 79 1007.9
20260509171512 56 147 1.7 2.6 0.00 0.00 0.00 78 1007.8
20260509171008 56 60 0.0 0.9 0.00 0.00 0.00 79 1008.0
20260509170504 57 141 1.7 1.7 0.00 0.00 0.00 77 1008.2
20260509165959 57 333 0.0 0.9 0.00 0.00 0.00 77 1007.8
20260509165458 56 23 0.0 0.0 0.00 0.00 0.00 75 1007.8
20260509164955 58 314 0.9 1.7 0.00 0.00 0.00 72 1007.8
20260509164450 59 87 0.9 1.7 0.00 0.00 0.00 70 1007.8
20260509163946 58 304 1.7 1.7 0.00 0.00 0.00 71 1007.6
20260509163444 59 241 3.5 5.2 0.00 0.00 0.00 74 1007.6
20260509162943 59 98 5.2 6.1 0.00 0.00 0.00 72 1007.7
20260509162442 59 330 0.9 0.9 0.00 0.00 0.00 69 1007.7
20260509161938 57 95 0.9 0.9 0.00 0.00 0.00 76 1007.6
20260509161434 57 251 1.7 2.6 0.00 0.00 0.00 74 1007.4
20260509160930 57 88 0.9 1.7 0.00 0.00 0.00 75 1007.6
20260509160426 57 6 0.9 0.9 0.00 0.00 0.00 77 1007.6
20260509155921 56 266 0.0 0.9 0.00 0.00 0.00 78 1007.6
20260509155418 56 229 1.7 2.6 0.00 0.00 0.00 75 1007.7
20260509154914 56 117 1.7 2.6 0.00 0.00 0.00 75 1007.7
20260509154411 55 99 1.7 1.7 0.00 0.00 0.00 77 1007.8
20260509153907 56 114 1.7 2.6 0.00 0.00 0.00 76 1007.7
20260509153405 55 92 0.0 0.9 0.00 0.00 0.00 77 1007.7
20260509152902 57 9 0.9 0.9 0.00 0.00 0.00 75 1007.8
20260509152357 56 103 0.9 1.7 0.00 0.00 0.00 78 1007.5
20260509151855 56 79 0.9 0.9 0.00 0.00 0.00 75 1007.6
20260509151350 55 119 3.5 3.5 0.00 0.00 0.00 76 1007.7
20260509150849 53 51 0.9 1.7 0.00 0.00 0.00 80 1007.2
20260509150347 57 24 0.0 0.0 0.00 0.00 0.00 75 1007.2
20260509145844 57 18 0.0 0.0 0.00 0.00 0.00 72 1007.7
20260509145338 57 212 2.6 2.6 0.00 0.00 0.00 69 1007.7
20260509144835 58 282 1.7 2.6 0.00 0.00 0.00 70 1007.7
20260509144332 57 79 0.9 0.9 0.00 0.00 0.00 71 1007.5
20260509143829 58 15 0.9 0.9 0.00 0.00 0.00 66 1007.5
20260509143327 57 311 1.7 3.5 0.00 0.00 0.00 67 1007.6
20260509142822 58 314 0.9 1.7 0.00 0.00 0.00 69 1007.3
20260509142319 58 169 1.7 1.7 0.00 0.00 0.00 68 1007.4
20260509141814 56 358 1.7 1.7 0.00 0.00 0.00 69 1007.6
20260509141312 55 316 0.9 1.7 0.00 0.00 0.00 70 1007.5
20260509140808 55 312 3.5 5.2 0.00 0.00 0.00 75 1007.4
20260509140305 55 302 2.6 3.5 0.00 0.00 0.00 73 1007.6
20260509135803 55 355 1.7 2.6 0.00 0.00 0.00 74 1008.0
20260509135300 54 288 3.5 3.5 0.00 0.00 0.00 75 1008.0
20260509134757 54 280 1.7 1.7 0.00 0.00 0.00 75 1007.9
20260509134255 54 45 0.9 0.9 0.00 0.00 0.00 75 1008.0
20260509133752 54 288 2.6 3.5 0.00 0.00 0.00 74 1007.9
20260509133248 54 232 1.7 5.2 0.00 0.00 0.00 76 1008.2
20260509132747 54 95 4.3 8.7 0.00 0.00 0.00 76 1008.2
20260509132246 54 223 0.9 1.7 0.00 0.00 0.00 80 1008.2
20260509131742 53 91 1.7 3.5 0.00 0.00 0.00 79 1008.2
20260509131239 53 230 1.7 2.6 0.00 0.00 0.00 79 1008.2
20260509130735 53 238 0.9 1.7 0.00 0.00 0.00 80 1008.2
20260509130230 53 355 1.7 2.6 0.00 0.00 0.00 81 1007.9
20260509125727 52 301 1.7 2.6 0.00 0.00 0.00 79 1008.0
20260509125224 52 231 3.5 5.2 0.00 0.00 0.00 80 1007.9
20260509124720 52 258 3.5 5.2 0.00 0.00 0.00 79 1008.0
20260509124218 52 15 1.7 2.6 0.00 0.00 0.00 79 1008.0
20260509123716 52 203 3.5 5.2 0.00 0.00 0.00 79 1008.0
20260509123213 52 304 1.7 2.6 0.00 0.00 0.00 79 1007.8
20260509122708 52 231 1.7 1.7 0.00 0.00 0.00 79 1008.0
20260509122205 52 96 3.5 5.2 0.00 0.00 0.00 78 1008.0
20260509121701 52 274 0.9 1.7 0.00 0.00 0.00 79 1008.0
20260509121159 52 218 2.6 5.2 0.00 0.00 0.00 78 1008.0
20260509120657 52 246 1.7 2.6 0.00 0.00 0.00 80 1008.2
20260509120155 52 286 1.7 1.7 0.00 0.00 0.00 80 1008.0
20260509115652 52 312 0.0 0.9 0.00 0.00 0.00 80 1008.0
20260509115150 51 121 1.7 5.2 0.00 0.00 0.00 80 1008.2
20260509114648 51 334 1.7 1.7 0.00 0.00 0.00 80 1008.2
20260509114147 51 262 2.6 7.0 0.00 0.00 0.00 79 1007.9
20260509113645 51 74 0.0 0.9 0.00 0.00 0.00 80 1007.8
20260509113142 51 233 2.6 6.1 0.00 0.00 0.00 80 1008.0
20260509112638 51 91 3.5 5.2 0.00 0.00 0.00 80 1007.9
20260509112135 51 331 2.6 2.6 0.00 0.00 0.00 79 1008.0
20260509111632 51 122 1.7 1.7 0.00 0.00 0.00 80 1007.9
20260509111129 51 228 3.5 5.2 0.00 0.00 0.00 79 1007.6
20260509110626 51 249 0.9 2.6 0.00 0.00 0.00 79 1007.8
20260509110123 51 300 1.7 2.6 0.00 0.00 0.00 79 1007.8
20260509105621 51 247 3.5 5.2 0.00 0.00 0.00 79 1007.6
20260509105119 51 19 1.7 1.7 0.00 0.00 0.00 79 1007.9
20260509104616 51 264 2.6 3.5 0.00 0.00 0.00 78 1007.8
20260509104112 51 331 0.9 0.9 0.00 0.00 0.00 78 1007.9
20260509103610 51 228 3.5 6.1 0.00 0.00 0.00 78 1007.8
20260509103108 51 243 1.7 2.6 0.00 0.00 0.00 78 1007.7
20260509102605 51 300 4.3 6.1 0.00 0.00 0.00 78 1007.8
20260509102102 51 48 1.7 3.5 0.00 0.00 0.00 78 1007.9
20260509101558 51 249 3.5 6.1 0.00 0.00 0.00 78 1007.9
20260509101055 51 353 3.5 5.2 0.00 0.00 0.00 78 1007.7
20260509100552 51 350 0.0 0.9 0.00 0.00 0.00 78 1007.8
20260509100050 51 0 5.2 7.0 0.00 0.00 0.00 78 1007.7
20260509095546 51 286 2.6 5.2 0.00 0.00 0.00 78 1007.5
20260509095044 51 266 8.7 9.6 0.00 0.00 0.00 77 1007.7
20260509094539 51 329 3.5 6.1 0.00 0.00 0.00 77 1008.0
20260509094037 51 218 5.2 11.3 0.00 0.00 0.00 77 1007.6
20260509093535 51 248 3.5 5.2 0.00 0.00 0.00 76 1007.6
20260509093033 51 324 4.3 6.1 0.00 0.00 0.00 76 1007.7
20260509092530 51 85 2.6 3.5 0.00 0.00 0.00 76 1007.8
20260509092029 51 236 3.5 5.2 0.00 0.00 0.00 74 1008.0
20260509091526 51 280 0.9 1.7 0.00 0.00 0.00 74 1008.2
20260509091022 51 68 1.7 1.7 0.00 0.00 0.00 74 1008.2
20260509090520 51 82 3.5 6.1 0.00 0.00 0.00 73 1008.2
20260509090018 51 90 1.7 1.7 0.00 0.00 0.00 72 1007.9
20260509085514 51 278 5.2 8.7 0.00 0.00 0.00 73 1008.0
20260509085010 51 244 3.5 5.2 0.00 0.00 0.00 73 1008.0
20260509084508 51 207 2.6 7.0 0.00 0.00 0.00 72 1008.3
20260509084005 51 14 0.9 1.7 0.00 0.00 0.00 72 1007.9
20260509083502 51 206 2.6 3.5 0.00 0.00 0.00 72 1008.0
20260509082958 51 352 1.7 2.6 0.00 0.00 0.00 71 1007.9
20260509082456 51 286 4.3 6.1 0.00 0.00 0.00 71 1008.0
20260509081952 51 267 4.3 8.7 0.00 0.00 0.00 70 1008.0
20260509081450 51 251 4.3 6.1 0.00 0.00 0.00 70 1008.2
20260509080947 51 212 2.6 3.5 0.00 0.00 0.00 69 1008.4
20260509080445 51 144 2.6 5.2 0.00 0.00 0.00 67 1008.4
20260509075943 51 222 3.5 7.8 0.00 0.00 0.00 67 1008.2
20260509075439 51 74 2.6 2.6 0.00 0.00 0.00 67 1008.2
20260509074938 51 74 0.9 1.7 0.00 0.00 0.00 66 1008.5
20260509074435 51 327 1.7 1.7 0.00 0.00 0.00 65 1008.4
20260509073931 51 249 4.3 5.2 0.00 0.00 0.00 64 1008.6
20260509073427 51 151 4.3 8.7 0.00 0.00 0.00 64 1008.5
20260509072924 51 62 2.6 3.5 0.00 0.00 0.00 63 1008.6
20260509072421 51 99 1.7 1.7 0.00 0.00 0.00 64 1008.6
20260509071917 51 44 1.7 2.6 0.00 0.00 0.00 63 1008.5
20260509071414 51 188 1.7 2.6 0.00 0.00 0.00 61 1008.8
20260509070912 51 218 1.7 3.5 0.00 0.00 0.00 60 1008.8
20260509070408 51 311 2.6 3.5 0.00 0.00 0.00 61 1008.9
20260509065904 51 121 1.7 1.7 0.00 0.00 0.00 60 1008.7
20260509065400 51 106 3.5 5.2 0.00 0.00 0.00 61 1008.5
20260509064856 51 73 0.0 0.9 0.00 0.00 0.00 59 1008.9
20260509064354 51 102 1.7 2.6 0.00 0.00 0.00 59 1008.7
20260509063852 51 258 1.7 2.6 0.00 0.00 0.00 59 1009.0
20260509063347 51 105 3.5 6.1 0.00 0.00 0.00 58 1008.8
20260509062845 51 210 2.6 2.6 0.00 0.00 0.00 57 1009.0
20260509062342 52 289 1.7 3.5 0.00 0.00 0.00 58 1009.3
20260509061839 52 353 1.7 2.6 0.00 0.00 0.00 56 1009.3
20260509061337 52 321 1.7 1.7 0.00 0.00 0.00 57 1009.1
20260509060833 52 177 2.6 2.6 0.00 0.00 0.00 55 1009.1
20260509060331 52 208 1.7 3.5 0.00 0.00 0.00 55 1009.0
20260509055826 52 180 2.6 2.6 0.00 0.00 0.00 55 1009.1
20260509055327 51 110 2.6 5.2 0.00 0.00 0.00 54 1009.0
20260509054824 51 218 3.5 3.5 0.00 0.00 0.00 55 1009.0
20260509054321 51 66 1.7 2.6 0.00 0.00 0.00 54 1009.1
20260509053819 51 355 1.7 2.6 0.00 0.00 0.00 54 1009.3
20260509053316 51 27 0.9 1.7 0.00 0.00 0.00 55 1009.4
20260509052814 51 245 0.9 1.7 0.00 0.00 0.00 55 1009.4
20260509052311 51 22 2.6 3.5 0.00 0.00 0.00 56 1009.3
20260509051809 50 97 1.7 3.5 0.00 0.00 0.00 55 1009.1
20260509051307 51 72 1.7 3.5 0.00 0.00 0.00 55 1009.4
20260509050803 51 24 1.7 2.6 0.00 0.00 0.00 55 1009.1
20260509050300 50 359 3.5 5.2 0.00 0.00 0.00 55 1009.5
20260509045757 51 52 0.9 0.9 0.00 0.00 0.00 55 1009.4
20260509045254 50 229 0.9 1.7 0.00 0.00 0.00 56 1009.4
20260509044751 51 62 1.7 1.7 0.00 0.00 0.00 56 1009.5
20260509044249 50 281 1.7 2.6 0.00 0.00 0.00 56 1009.4
20260509043745 50 178 0.9 1.7 0.00 0.00 0.00 57 1009.5
20260509043241 50 50 1.7 2.6 0.00 0.00 0.00 57 1009.5
20260509042737 51 60 1.7 1.7 0.00 0.00 0.00 56 1009.5
20260509042233 50 182 2.6 3.5 0.00 0.00 0.00 56 1009.1
20260509041730 50 298 0.9 1.7 0.00 0.00 0.00 57 1009.4
20260509041227 50 283 0.9 1.7 0.00 0.00 0.00 57 1009.0
20260509040726 50 223 2.6 2.6 0.00 0.00 0.00 58 1009.1
20260509040222 50 73 1.7 2.6 0.00 0.00 0.00 57 1009.4
20260509035719 50 23 2.6 7.0 0.00 0.00 0.00 58 1009.3
20260509035216 50 77 1.7 1.7 0.00 0.00 0.00 58 1009.6
20260509034713 50 217 4.3 7.8 0.00 0.00 0.00 58 1009.6
20260509034211 50 52 0.9 1.7 0.00 0.00 0.00 58 1009.6
20260509033707 50 273 1.7 2.6 0.00 0.00 0.00 58 1009.6
20260509033204 51 182 4.3 7.0 0.00 0.00 0.00 58 1009.4
20260509032702 51 150 0.9 1.7 0.00 0.00 0.00 58 1009.7
20260509032158 51 274 0.9 1.7 0.00 0.00 0.00 58 1009.7
20260509031656 51 44 1.7 3.5 0.00 0.00 0.00 58 1009.7
20260509031153 51 190 1.7 2.6 0.00 0.00 0.00 58 1009.7
20260509030652 51 184 2.6 3.5 0.00 0.00 0.00 57 1009.8
20260509030148 51 345 1.7 2.6 0.00 0.00 0.00 58 1009.5
20260509025644 51 14 1.7 2.6 0.00 0.00 0.00 59 1009.8
20260509025141 51 173 2.6 2.6 0.00 0.00 0.00 58 1009.8
20260509024636 51 239 1.7 2.6 0.00 0.00 0.00 59 1009.8
20260509024132 51 143 3.5 5.2 0.00 0.00 0.00 58 1010.0
20260509023630 51 71 1.7 1.7 0.00 0.00 0.00 58 1009.9
20260509023127 51 39 1.7 1.7 0.00 0.00 0.00 59 1009.9
20260509022623 51 108 1.7 2.6 0.00 0.00 0.00 60 1009.9
20260509022121 51 70 1.7 1.7 0.00 0.00 0.00 59 1009.9
20260509021618 51 83 1.7 2.6 0.00 0.00 0.00 58 1009.9
20260509021115 51 344 2.6 3.5 0.00 0.00 0.00 59 1009.9
20260509020613 51 117 0.9 1.7 0.00 0.00 0.00 59 1009.8